Date String (YYYY-MM-DD hh:mm:ss) UTC,Instrument flags,Ambient pressure (hPa),Sample flow (lpm),Bypass flow (lpm),Sample temperature (°C),Ambient temperature (°C),ASC tube jacket temperature (°C),LED temperature (°C),Box temperature (°C),Sample RH (%),Span deviation,Mass concentration (μg/m³),Mass concentration (μg/m³),Mass concentration (μg/m³)
DateTimeUTC,F1_M11,P_M11,Q1_M11,Q2_M11,T1_M11,T2_M11,T3_M11,T4_M11,T5_M11,U1_M11,ZSPAN_M11,X0_M11,X2_M11,X1_M11
2022-01-12 15:00:00,,0830.8,4.99,0.00,22.8,21.9,00.0,31.8,24.5,10.5,0000.0,0001.31,0000.03,0000.00
2022-01-12 15:01:00,,0830.7,5.01,0.00,22.8,22.0,00.0,31.8,24.5,10.6,0000.0,0001.14,0000.03,0000.00
2022-01-12 15:02:00,,0830.8,5.00,0.00,22.8,22.0,00.0,31.8,24.5,10.7,0000.0,0000.32,0000.04,0000.00
2022-01-12 15:03:00,,0830.8,4.99,0.00,22.8,22.0,00.0,31.8,24.6,10.6,0000.0,0000.32,0000.04,0000.00
2022-01-12 15:04:00,,0830.9,5.01,0.00,22.8,22.0,00.0,31.8,24.6,10.4,0000.0,0000.19,0000.03,0000.00
2022-01-12 15:05:00,,0830.8,5.00,0.00,22.8,22.1,00.0,31.8,24.6,10.5,0000.0,0000.09,0000.03,0000.00
2022-01-12 15:06:00,,0830.8,4.99,0.00,22.8,22.1,00.0,31.8,24.6,10.0,0000.0,0000.09,0000.03,0000.00
2022-01-12 15:07:00,,0830.7,5.00,0.00,22.8,22.1,00.0,31.8,24.6,09.9,0000.0,0000.09,0000.03,0000.00
2022-01-12 15:08:00,,0830.7,5.01,0.00,22.8,22.1,00.0,31.8,24.6,10.1,0000.0,0000.09,0000.03,0000.00
2022-01-12 15:09:00,,0830.7,4.99,0.00,22.8,22.1,00.0,31.8,24.6,10.3,0000.0,0000.09,0000.03,0000.00
2022-01-12 15:10:00,,0830.7,5.01,0.00,22.8,22.2,00.0,31.8,24.6,10.1,0000.0,0000.10,0000.04,0000.00
2022-01-12 15:11:00,,0830.7,5.00,0.00,22.9,22.1,00.0,31.8,24.7,10.0,0000.0,0000.08,0000.04,0000.00
2022-01-12 15:12:00,,0830.7,5.00,0.00,22.9,22.2,00.0,31.8,24.6,09.8,0000.0,0000.07,0000.03,0000.00
2022-01-12 15:13:00,,0830.7,5.00,0.00,22.9,22.2,00.0,31.8,24.6,09.6,0000.0,0000.03,0000.02,0000.00
2022-01-12 15:14:00,,0830.7,5.01,0.00,22.9,22.2,00.0,31.8,24.6,09.1,0000.0,0000.03,0000.02,0000.00
2022-01-12 15:15:00,,0830.7,4.98,0.00,22.9,22.2,00.0,31.8,24.6,08.9,0000.0,0000.03,0000.02,0000.00
2022-01-12 15:16:00,,0830.7,5.01,0.00,22.9,22.1,00.0,31.8,24.7,08.9,0000.0,0000.03,0000.02,0000.01
2022-01-12 15:17:00,,0830.7,5.00,0.00,22.9,22.2,00.0,31.9,24.7,08.9,0000.0,0000.03,0000.03,0000.01
2022-01-12 15:18:00,,0831.0,4.99,0.00,22.9,22.1,00.0,31.9,24.6,08.9,0000.0,0000.04,0000.03,0000.01
2022-01-12 15:19:00,,0831.0,5.00,0.00,22.9,22.1,00.0,31.9,24.6,08.8,0000.0,0000.04,0000.03,0000.01
2022-01-12 15:20:00,,0831.0,5.00,0.00,22.8,22.0,00.0,31.8,24.6,08.8,0000.0,0000.09,0000.05,0000.01
2022-01-12 15:21:00,,0831.1,5.02,0.00,22.8,22.0,00.0,31.8,24.6,08.7,0000.0,0000.10,0000.05,0000.01
2022-01-12 15:22:00,,0831.2,5.00,0.00,22.8,22.0,00.0,31.8,24.6,08.7,0000.0,0000.14,0000.05,0000.01
2022-01-12 15:23:00,,0831.2,5.00,0.00,22.9,22.5,00.0,31.9,24.7,08.9,0000.0,0000.14,0000.05,0000.01
2022-01-12 15:24:00,,0831.0,4.99,0.00,23.0,23.3,00.0,31.9,24.9,08.9,0000.0,0000.14,0000.05,0000.01
2022-01-12 15:25:00,,0831.0,5.01,0.00,23.1,23.6,00.0,31.9,25.1,08.8,0000.0,0000.94,0000.05,0000.00
2022-01-12 15:26:00,,0831.0,4.99,0.00,23.2,23.5,00.0,32.0,25.1,08.8,0000.0,0001.29,0000.05,0000.00
2022-01-12 15:27:00,,0831.0,5.00,0.00,23.2,23.3,00.0,32.0,25.1,08.9,0000.0,0001.31,0000.06,0000.00
2022-01-12 15:28:00,,0831.1,5.02,0.00,23.2,23.2,00.0,32.0,25.1,08.8,0000.0,0001.31,0000.06,0000.00
2022-01-12 15:29:00,,0831.1,4.99,0.00,23.2,23.1,00.0,32.0,25.1,08.7,0000.0,0001.37,0000.07,0000.00
2022-01-12 15:30:00,,0831.1,5.00,0.00,23.3,23.0,00.0,32.1,25.1,08.6,0000.0,0001.42,0000.07,0000.00
2022-01-12 15:31:00,,0831.2,5.02,0.00,23.3,23.0,00.0,32.1,25.1,08.6,0000.0,0001.95,0000.05,0000.00
2022-01-12 15:32:00,,0831.1,5.02,0.00,23.3,22.9,00.0,32.1,25.1,08.8,0000.0,0002.23,0000.04,0000.00
2022-01-12 15:33:00,,0831.2,4.99,0.00,23.3,22.9,00.0,32.1,25.1,09.0,0000.0,0002.19,0000.03,0000.00
2022-01-12 15:34:00,,0831.1,5.00,0.00,23.3,22.9,00.0,32.1,25.1,09.2,0000.0,0002.21,0000.04,0000.00
2022-01-12 15:35:00,,0831.2,4.99,0.00,23.3,22.9,00.0,32.2,25.1,09.2,0000.0,0002.23,0000.05,0000.00
2022-01-12 15:36:00,,0831.1,5.01,0.00,23.3,22.9,00.0,32.2,25.1,09.0,0000.0,0001.36,0000.05,0000.00
2022-01-12 15:37:00,,0831.1,5.00,0.00,23.3,22.9,00.0,32.2,25.1,09.2,0000.0,0001.08,0000.06,0000.00
2022-01-12 15:38:00,,0831.2,4.99,0.00,23.4,22.9,00.0,32.2,25.2,09.3,0000.0,0001.06,0000.04,0000.00
2022-01-12 15:39:00,,0831.2,5.00,0.00,23.4,22.9,00.0,32.2,25.2,09.3,0000.0,0001.06,0000.04,0000.00
2022-01-12 15:40:00,,0831.4,5.01,0.00,23.4,22.9,00.0,32.3,25.2,09.0,0000.0,0000.99,0000.03,0000.00
2022-01-12 15:41:00,,0831.4,4.99,0.00,23.4,22.9,00.0,32.3,25.2,08.9,0000.0,0000.96,0000.03,0000.01
2022-01-12 15:42:00,,0831.3,5.01,0.00,23.4,22.9,00.0,32.3,25.2,09.1,0000.0,0000.26,0000.04,0000.01
2022-01-12 15:43:00,,0831.2,4.99,0.00,23.4,22.9,00.0,32.3,25.2,08.9,0000.0,0000.09,0000.04,0000.01
2022-01-12 15:44:00,,0831.3,5.02,0.00,23.5,22.9,00.0,32.3,25.3,08.8,0000.0,0000.13,0000.05,0000.01
2022-01-12 15:45:00,,0831.4,4.99,0.00,23.5,22.9,00.0,32.3,25.3,09.2,0000.0,0000.59,0000.06,0000.01
2022-01-12 15:46:00,,0831.5,5.00,0.00,23.5,22.9,00.0,32.4,25.3,09.1,0000.0,0001.30,0000.05,0000.02
2022-01-12 15:47:00,,0831.6,5.00,0.00,23.5,23.0,00.0,32.4,25.3,08.8,0000.0,0002.94,0000.05,0000.01
2022-01-12 15:48:00,,0831.6,4.99,0.00,23.5,23.0,00.0,32.4,25.3,08.7,0000.0,0003.08,0000.07,0000.01
2022-01-12 15:49:00,,0831.7,5.01,0.00,23.5,23.0,00.0,32.4,25.4,08.9,0000.0,0003.12,0000.08,0000.01
2022-01-12 15:50:00,,0831.7,4.99,0.00,23.5,23.0,00.0,32.4,25.4,09.3,0000.0,0003.25,0000.10,0000.01
2022-01-12 15:51:00,,0831.7,5.00,0.00,23.6,23.0,00.0,32.4,25.4,09.3,0000.0,0003.28,0000.10,0000.01
2022-01-12 15:52:00,,0831.6,5.01,0.00,23.6,23.0,00.0,32.5,25.4,09.2,0000.0,0003.27,0000.10,0000.01
2022-01-12 15:53:00,,0831.6,4.99,0.00,23.6,23.0,00.0,32.5,25.4,08.7,0000.0,0003.27,0000.09,0000.01
2022-01-12 15:54:00,,0831.7,5.00,0.00,23.6,23.1,00.0,32.5,25.5,08.7,0000.0,0003.29,0000.09,0000.01
2022-01-12 15:55:00,,0831.7,5.00,0.00,23.6,23.1,00.0,32.5,25.5,08.9,0000.0,0003.30,0000.09,0000.01
2022-01-12 15:56:00,,0831.6,5.00,0.00,23.6,23.1,00.0,32.5,25.5,09.0,0000.0,0002.84,0000.07,0000.00
2022-01-12 15:57:00,,0831.7,4.99,0.00,23.7,23.1,00.0,32.5,25.5,09.2,0000.0,0002.08,0000.07,0000.00
2022-01-12 15:58:00,,0831.7,5.01,0.00,23.7,23.1,00.0,32.5,25.5,09.2,0000.0,0000.78,0000.07,0000.00
2022-01-12 15:59:00,,0831.7,5.01,0.00,23.7,23.2,00.0,32.6,25.5,09.3,0000.0,0001.05,0000.06,0000.00
